SCP
0 0 -0 -0 -0 -0 0 -0 -0 0 -0 -0 -0 -0 -0 -0 -0 -0 -0 -0 -0 -0 -0 -0 -0 -0 -0 -0 -0 -0 -0 -0 -0 -0 -0 -0 -0 -0 -0 -0 0 0 -0
0 0 -0 -0 -0 0 0 -0 -0 0 -0 -0 -0 -0 -0 -0 -0 -0 -0 -0 -0 -0 -0 -0 -0 -0 -0 -0 -0 -0 -0 -0 -0 -0 -0 -0 -0 -0 -0 -0 -0 0 -0
0 0 0 -0 -0 0 0 -0 -0 -0 -0 -0 -0 -0 -0 -0 -0 -0 -0 -0 -0 -0 -0 -0 -0 -0 -0 -0 -0 -0 -0 -0 -0 -0 -0 0 0 -0 -0 -0 -0 -0 -0
0 0 0 -0 -0 0 0 0 0 -0 -0 -0 -0 -0 -0 -0 -0 -0 -0 -0 -0 0 -0 -0 -0 -0 -0 -0 -0 -0 -0 -0 -0 -0 0 0 0 -0 -0 -0 -0 -0 -0
0 0 0 -0 0 0 0 0 -0 -0 -0 -0 -0 -0 -0 -0 -0 -0 -0 -0 0 0 0 0 -0 -0 -0 -0 -0 -0 -0 -0 -0 0 0 0 0 0 0 0 -0 -0 -0
0 0 0 0 -0 0 0 0 0 0 -0 -0 -0 0 -0 -0 -0 -0 -0 0 0 0 0 -0 -0 -0 -0 -0 -0 -0 -0 -0 0 0 0 0 0 0 0 0 0 0 0
0 0 0 0 0 0 0 0 0 0 0 0 0 0 0 0 -0 -0 -0 0 0 0 0 0 0 -0 -0 -0 -0 -0 -0 -0 0 0 0 0 0 0 0 0 0 0 0
0 0 0 0 0 0 0 0 0 0 0 0 0 0 0 0 0 0 0 0 0 0 0 0 0 0 0 0 0 -0 0 0 0 0 0 0 0 0 0 0 0 0 0
0 0 0 0 0 0 0 0 0 0 0 0 0 0 0 0 0 0 0 0 0 0 0 0 0 0 0 0 0 0 0 0 0 0 0 0 0 0 0 0 0 0 0
0 0 0 0 0 0 0 0 0 0 0 0 0 0 0 0 0 0 0 0 0 0 0 0 0 0 0 0 0 0 0 0 0 0 0 0 0 0 0 0 0 0 0
0 0 0 0 0 0 0 0 0 0 0 0 0 0 0 0 0 0 0 0 0 0 0 0 0 0 0 0 0 0 0 0 0 0 0 0 0 0 0 0 0 0 0
0 0 0 0 0 0 0 0 0 0 0 0 0 0 0 0 0 0 0 0 0 0 0 0 0 0 0 0 0 0 0 0 0 0 0 0 0 0 0 0 0 0 0
0 0 0 0 0 0 0 0 0 0 0 0 0 0 0 0 0 0 0 0 0 0 0 0 0 0 0 0 0 0 0 0 0 0 0 0 0 0 0 0 0 0 0
0 0 0 0 0 0 0 0 0 0 0 0 0 0 0 0 0 0 0 0 0 0 0 0 0 0 0 0 0 0 0 0 0 0 0 0 0 0 0 0 0 0 0
0 0 -0 0 0 0 0 0 0 0 0 0 0 0 0 0 0 0 0 0 0 0 0 0 0 0 0 0 0 0 0 0 0 0 0 0 0 0 0 0 0 0 0
0 0 -0 -0 0 0 0 0 0 0 0 0 0 0 0 0 0 0 0 0 0 0 0 0 0 0 0 0 0 0 0 0 0 0 0 0 0 0 0 0 0 0 0
-0 -0 -0 0 0 0 0 0 0 0 0 0 0 0 0 0 0 0 0 0 0 0 0 0 0 0 0 0 0 0 0 0 0 0 0 0 0 0 0 0 0 0 0
0 0 -0 0 0 0 0 0 0 0 0 0 0 0 0 0 0 0 0 0 0 0 0 0 0 0 0 0 0 0 0 0 0 0 0 0 0 0 0 0 0 0 0
0 0 0 0 0 0 0 0 0 0 0 0 0 0 0 0 0 0 0 0 0 0 0 0 0 0 0 0 0 0 0 0 0 0 0 0 0 0 0 0 0 0 0
0 0 0 0 0 0 0 0 0 0 0 0 0 0 0 0 0 0 0 0 0 0 0 0 0 0 0 0 0 0 0 0 0 0 0 0 0 0 0 0 0 0 0
0 0 0 0 0 0 0 0 0 0 0 0 0 0 0 0 0 0 0 0 0 0 0 0 0 0 0 0 0 0 0 0 0 0 0 0 0 0 0 0 0 0 0
0 0 0 0 0 0 0 0 0 0 0 0 0 0 0 0 0 0 0 0 0 0 0 0 0 0 0 0 0 0 0 0 0 0 0 0 0 0 0 0 0 0 0
0 0 0 0 0 0 0 0 0 0 0 0 0 0 0 0 0 0 0 0 0 0 0 0 0 0 0 0 0 0 0 0 0 0 0 0 0 0 0 0 0 0 0
0 0 0 0 0 0 0 0 0 0 0 0 0 0 0 0 0 0 0 0 0 0 0 0 0 0 0 0 0 0 0 0 0 0 0 0 0 0 0 0 0 0 0
0 0 0 0 0 0 0 0 0 0 0 0 0 0 0 0 0 0 0 0 0 0 0 0 0 0 0 0 0 0 0 0 0 0 0 0 0 0 0 0 0 0 0
0 0 0 0 0 0 0 0 0 0 0 0 0 0 0 0 0 0 0 0 0 0 0 0 0 0 0 0 0 0 0 0 0 0 0 0 0 0 0 0 0 0 0
Wind_Speed_500mb
10 19 18 22 22 30 25 25 24 21 20 22 22 25 25 26 22 19 19 15 12 16 21 22 20 27 29 30 28 27 25 26 30 30 30 27 29 31 33 33 30 28 25
18 18 17 21 25 26 27 27 23 25 26 27 27 26 24 25 26 22 16 12 13 21 22 21 26 27 28 27 26 26 27 23 24 27 26 27 24 27 30 31 30 29 28
26 27 24 27 29 22 23 28 26 26 29 29 32 34 32 30 24 16 12 9 15 21 21 23 23 24 23 23 22 22 20 20 18 17 26 39 36 31 28 28 30 32 36
33 30 27 35 24 24 26 30 31 33 33 32 31 28 23 20 17 9 6 3 9 14 17 20 21 21 18 18 20 19 16 13 11 12 23 35 33 29 27 29 25 23 26
39 47 46 52 32 30 32 31 34 32 32 28 23 15 14 15 18 16 8 6 11 12 14 15 16 19 15 17 19 20 16 12 9 13 18 26 24 18 24 17 18 16 14
49 53 61 61 55 31 30 32 33 29 22 17 12 9 11 11 10 8 7 9 8 10 11 12 14 15 13 14 17 16 14 13 12 17 20 19 19 13 17 19 12 12 6
45 51 55 58 59 48 36 35 31 24 18 14 12 11 13 13 14 10 8 7 7 7 9 11 13 15 14 15 17 16 15 14 14 18 20 15 12 13 15 17 15 9 5
42 47 47 52 51 52 50 41 28 17 12 9 10 12 11 10 8 8 7 7 7 7 8 11 14 15 15 16 18 18 16 15 16 17 16 15 14 16 18 19 15 5 2
39 40 41 41 41 33 27 29 20 14 12 13 14 12 10 8 7 8 9 10 9 10 10 13 16 18 16 19 18 17 14 14 14 15 13 11 13 12 20 25 19 13 8
38 40 40 39 35 30 24 24 22 21 15 16 15 14 13 12 12 12 11 12 11 11 13 17 20 22 24 21 20 19 17 16 13 16 16 19 10 21 25 24 25 20 22
37 43 43 40 38 32 28 29 26 28 22 21 21 19 18 17 15 14 14 14 13 13 16 19 23 26 25 20 23 22 19 18 16 19 19 24 26 27 23 25 27 27 28
42 39 39 42 42 37 36 33 30 30 21 26 27 24 24 23 20 18 19 18 16 16 19 19 22 27 23 21 19 21 19 18 19 19 21 27 24 25 25 25 26 26 26
46 46 45 45 44 40 38 36 33 30 28 33 32 28 27 27 27 26 24 21 19 19 20 21 24 25 24 22 19 17 20 21 20 19 23 26 25 24 24 24 25 25 25
39 43 43 39 37 40 42 38 35 31 32 36 36 33 29 30 32 27 26 22 22 20 22 23 25 27 27 24 19 19 22 22 20 18 19 20 24 24 24 24 24 24 25
33 31 26 32 34 39 38 41 38 35 34 33 33 32 31 30 31 28 28 27 24 24 27 26 28 30 30 27 23 22 24 24 22 20 18 16 16 18 20 23 23 23 24
29 32 35 32 33 38 36 34 34 34 35 34 34 33 34 35 37 33 30 29 29 29 29 28 29 30 31 30 28 27 27 25 21 18 15 12 9 7 9 12 17 19 21
34 31 32 31 30 31 32 32 34 34 35 35 34 35 37 37 32 31 30 30 30 30 30 32 32 31 30 30 27 26 25 23 21 19 15 12 8 9 11 11 10 12 15
38 38 34 37 36 35 36 38 37 35 36 36 34 36 33 34 32 32 32 33 31 30 31 30 29 31 30 29 26 24 24 24 23 20 16 12 9 6 3 4 5 7 8
39 40 41 40 38 39 39 40 38 36 35 35 34 32 34 34 34 34 33 31 29 31 28 29 30 30 30 31 30 29 28 26 23 20 17 13 10 7 4 2 2 5 8
40 44 45 41 42 42 39 42 42 43 45 42 39 39 37 37 36 36 33 32 32 30 31 32 32 31 31 28 28 27 28 28 26 26 25 21 15 10 9 8 8 8 8
44 47 48 46 46 50 52 50 54 54 50 49 48 46 45 45 46 42 41 40 36 33 32 32 35 35 36 37 33 33 36 39 39 35 29 23 25 19 16 15 14 12 12
40 46 50 51 51 54 55 55 55 54 56 53 51 53 54 54 51 49 46 42 38 40 40 39 39 38 40 42 41 33 22 42 45 46 48 39 29 30 25 23 20 18 18
41 41 45 48 50 52 51 52 55 58 62 65 66 66 60 54 53 52 47 48 48 50 47 46 46 46 44 47 50 35 21 24 24 42 51 48 41 40 34 30 25 24 22
42 40 42 46 51 54 55 59 62 66 69 67 62 60 56 56 57 57 58 58 57 57 56 55 54 54 51 51 51 56 53 32 22 21 44 50 48 47 39 34 31 28 27
44 46 46 47 50 52 58 62 67 73 73 69 67 63 63 64 67 67 67 65 66 66 62 62 63 62 61 61 61 58 59 56 50 45 31 43 49 47 43 39 36 33 31
47 51 53 54 56 55 58 63 68 71 72 75 73 71 72 72 75 76 76 75 74 74 71 69 67 67 66 66 65 65 65 62 60 57 53 49 43 45 45 44 39 36 36
Wind_Direction_500mb
166 169 154 119 113 98 111 115 116 119 129 126 124 120 119 118 115 107 95 83 81 53 77 89 95 101 101 103 107 102 97 95 79 74 72 74 75 80 82 80 79 79 75
129 148 147 135 122 109 116 125 128 134 130 130 127 121 122 121 115 116 121 88 72 69 91 91 108 108 113 122 123 107 102 106 89 76 72 87 82 84 88 84 78 75 73
112 133 144 139 125 126 133 137 139 137 130 129 131 132 132 132 127 124 117 75 53 98 87 92 107 117 125 131 135 121 117 113 105 90 89 87 83 86 88 90 86 81 77
125 132 137 119 128 143 148 147 144 140 142 145 150 154 153 146 137 154 209 91 82 102 88 98 109 121 129 128 137 138 136 127 130 130 113 97 93 85 84 95 99 101 89
134 121 129 111 116 146 151 155 155 163 165 166 178 184 173 183 179 186 206 103 116 106 103 109 113 125 141 140 144 151 154 154 154 163 145 109 106 103 95 100 107 98 98
137 129 128 125 112 163 171 178 177 186 197 201 203 216 209 180 180 180 163 139 125 116 120 124 133 145 159 155 159 165 178 191 193 191 168 135 117 122 132 121 111 115 125
141 136 135 139 142 137 173 189 189 203 220 236 234 225 190 171 166 166 163 157 149 142 142 151 162 175 186 170 176 184 192 203 210 201 197 153 155 183 132 140 129 122 86
162 155 151 159 172 173 174 187 188 195 220 204 199 189 186 182 180 185 196 207 196 183 177 182 197 201 206 188 191 197 204 208 213 206 175 161 150 129 114 106 102 117 267
168 172 173 173 184 187 195 185 190 213 230 210 211 205 209 220 224 239 244 228 219 213 202 199 217 222 222 210 209 203 210 218 232 223 194 144 136 124 110 99 93 85 72
187 190 191 189 189 197 198 210 205 209 215 234 230 227 221 230 238 235 233 239 244 221 202 203 222 231 228 209 212 221 235 237 243 198 183 154 161 112 96 91 92 88 79
204 199 200 201 197 207 211 215 220 227 201 227 234 245 252 253 250 239 229 236 237 225 214 199 211 227 254 222 217 226 232 232 220 205 188 134 112 97 91 87 85 80 77
203 203 207 210 207 215 213 217 226 233 222 229 233 243 253 260 256 257 252 239 236 235 228 227 228 242 258 248 238 227 220 216 200 177 149 123 111 99 93 89 86 80 74
205 197 204 213 214 216 225 225 229 234 230 242 243 239 249 251 251 248 246 237 237 240 251 243 242 244 244 246 242 227 208 200 191 176 153 132 113 103 95 89 84 81 72
222 221 205 216 222 227 230 235 235 235 239 235 240 247 247 259 254 239 235 236 242 236 242 236 230 237 239 237 233 215 199 193 188 179 164 151 126 106 97 90 84 78 73
242 243 246 231 231 239 240 245 245 244 243 245 248 248 247 252 247 240 241 238 230 229 229 224 223 225 226 227 217 205 193 187 183 175 168 161 147 127 108 95 88 79 74
228 229 233 238 236 237 237 240 245 245 244 242 241 239 238 241 239 239 237 239 234 230 228 221 218 219 218 218 212 204 206 200 192 182 178 170 158 142 118 106 96 84 72
239 241 232 228 236 245 242 239 237 238 237 236 234 236 237 238 238 242 241 237 240 238 232 224 220 214 216 220 218 208 207 202 195 190 183 172 153 120 108 97 90 78 75
246 242 243 239 234 225 229 233 232 235 238 240 237 238 238 241 240 241 243 243 239 235 232 225 222 217 212 214 220 217 208 203 204 199 188 180 169 155 135 97 62 57 59
238 236 238 239 238 240 240 239 239 237 237 234 235 235 238 244 245 248 247 249 249 243 236 235 230 222 223 214 211 213 216 214 214 215 212 206 201 193 201 237 308 5 12
232 229 229 234 241 242 238 239 242 240 238 237 238 240 244 247 249 249 251 247 246 243 238 234 230 227 224 225 218 219 220 218 222 232 231 227 230 244 262 282 293 311 321
236 237 238 240 243 244 245 245 244 245 245 243 245 245 244 248 253 253 250 247 245 244 240 237 233 229 228 226 222 225 228 232 235 238 229 225 233 245 262 274 280 287 306
246 244 240 241 243 244 244 244 245 246 243 241 239 239 247 251 250 246 242 239 242 242 239 237 236 233 231 229 228 227 239 240 240 237 233 237 247 240 251 256 270 274 283
261 260 255 252 250 250 249 246 244 242 240 238 241 247 249 249 245 242 240 245 244 239 237 236 235 234 231 231 227 219 215 226 228 236 231 237 241 237 244 255 259 259 265
277 275 269 262 258 254 252 249 247 249 251 254 257 258 256 249 242 244 247 246 243 241 239 237 235 233 232 232 231 232 235 239 231 228 231 234 238 242 244 252 263 265 270
284 282 277 272 264 258 253 253 254 255 258 261 260 258 252 247 248 252 252 248 246 245 242 238 237 236 236 234 234 234 235 240 243 240 242 237 237 243 247 254 265 271 277
287 278 276 272 269 264 260 258 256 257 259 261 261 257 253 249 252 254 251 249 248 248 246 244 244 242 240 240 239 237 239 237 238 237 240 247 248 249 252 258 263 269 272
Wind_Speed_850mb
10 19 18 22 22 30 25 25 24 21 20 22 22 25 25 26 22 19 19 15 12 16 21 22 20 27 29 30 28 27 25 26 30 30 30 27 29 31 33 33 30 28 25
18 18 17 21 25 26 27 27 23 25 26 27 27 26 24 25 26 22 16 12 13 21 22 21 26 27 28 27 26 26 27 23 24 27 26 27 24 27 30 31 30 29 28
26 27 24 27 29 22 23 28 26 26 29 29 32 34 32 30 24 16 12 9 15 21 21 23 23 24 23 23 22 22 20 20 18 17 26 39 36 31 28 28 30 32 36
33 30 27 35 24 24 26 30 31 33 33 32 31 28 23 20 17 9 6 3 9 14 17 20 21 21 18 18 20 19 16 13 11 12 23 35 33 29 27 29 25 23 26
39 47 46 52 32 30 32 31 34 32 32 28 23 15 14 15 18 16 8 6 11 12 14 15 16 19 15 17 19 20 16 12 9 13 18 26 24 18 24 17 18 16 14
49 53 61 61 55 31 30 32 33 29 22 17 12 9 11 11 10 8 7 9 8 10 11 12 14 15 13 14 17 16 14 13 12 17 20 19 19 13 17 19 12 12 6
45 51 55 58 59 48 36 35 31 24 18 14 12 11 13 13 14 10 8 7 7 7 9 11 13 15 14 15 17 16 15 14 14 18 20 15 12 13 15 17 15 9 5
42 47 47 52 51 52 50 41 28 17 12 9 10 12 11 10 8 8 7 7 7 7 8 11 14 15 15 16 18 18 16 15 16 17 16 15 14 16 18 19 15 5 2
39 40 41 41 41 33 27 29 20 14 12 13 14 12 10 8 7 8 9 10 9 10 10 13 16 18 16 19 18 17 14 14 14 15 13 11 13 12 20 25 19 13 8
38 40 40 39 35 30 24 24 22 21 15 16 15 14 13 12 12 12 11 12 11 11 13 17 20 22 24 21 20 19 17 16 13 16 16 19 10 21 25 24 25 20 22
37 43 43 40 38 32 28 29 26 28 22 21 21 19 18 17 15 14 14 14 13 13 16 19 23 26 25 20 23 22 19 18 16 19 19 24 26 27 23 25 27 27 28
42 39 39 42 42 37 36 33 30 30 21 26 27 24 24 23 20 18 19 18 16 16 19 19 22 27 23 21 19 21 19 18 19 19 21 27 24 25 25 25 26 26 26
46 46 45 45 44 40 38 36 33 30 28 33 32 28 27 27 27 26 24 21 19 19 20 21 24 25 24 22 19 17 20 21 20 19 23 26 25 24 24 24 25 25 25
39 43 43 39 37 40 42 38 35 31 32 36 36 33 29 30 32 27 26 22 22 20 22 23 25 27 27 24 19 19 22 22 20 18 19 20 24 24 24 24 24 24 25
33 31 26 32 34 39 38 41 38 35 34 33 33 32 31 30 31 28 28 27 24 24 27 26 28 30 30 27 23 22 24 24 22 20 18 16 16 18 20 23 23 23 24
29 32 35 32 33 38 36 34 34 34 35 34 34 33 34 35 37 33 30 29 29 29 29 28 29 30 31 30 28 27 27 25 21 18 15 12 9 7 9 12 17 19 21
34 31 32 31 30 31 32 32 34 34 35 35 34 35 37 37 32 31 30 30 30 30 30 32 32 31 30 30 27 26 25 23 21 19 15 12 8 9 11 11 10 12 15
38 38 34 37 36 35 36 38 37 35 36 36 34 36 33 34 32 32 32 33 31 30 31 30 29 31 30 29 26 24 24 24 23 20 16 12 9 6 3 4 5 7 8
39 40 41 40 38 39 39 40 38 36 35 35 34 32 34 34 34 34 33 31 29 31 28 29 30 30 30 31 30 29 28 26 23 20 17 13 10 7 4 2 2 5 8
40 44 45 41 42 42 39 42 42 43 45 42 39 39 37 37 36 36 33 32 32 30 31 32 32 31 31 28 28 27 28 28 26 26 25 21 15 10 9 8 8 8 8
44 47 48 46 46 50 52 50 54 54 50 49 48 46 45 45 46 42 41 40 36 33 32 32 35 35 36 37 33 33 36 39 39 35 29 23 25 19 16 15 14 12 12
40 46 50 51 51 54 55 55 55 54 56 53 51 53 54 54 51 49 46 42 38 40 40 39 39 38 40 42 41 33 22 42 45 46 48 39 29 30 25 23 20 18 18
41 41 45 48 50 52 51 52 55 58 62 65 66 66 60 54 53 52 47 48 48 50 47 46 46 46 44 47 50 35 21 24 24 42 51 48 41 40 34 30 25 24 22
42 40 42 46 51 54 55 59 62 66 69 67 62 60 56 56 57 57 58 58 57 57 56 55 54 54 51 51 51 56 53 32 22 21 44 50 48 47 39 34 31 28 27
44 46 46 47 50 52 58 62 67 73 73 69 67 63 63 64 67 67 67 65 66 66 62 62 63 62 61 61 61 58 59 56 50 45 31 43 49 47 43 39 36 33 31
47 51 53 54 56 55 58 63 68 71 72 75 73 71 72 72 75 76 76 75 74 74 71 69 67 67 66 66 65 65 65 62 60 57 53 49 43 45 45 44 39 36 36
Wind_Direction_850mb
166 169 154 119 113 98 111 115 116 119 129 126 124 120 119 118 115 107 95 83 81 53 77 89 95 101 101 103 107 102 97 95 79 74 72 74 75 80 82 80 79 79 75
129 148 147 135 122 109 116 125 128 134 130 130 127 121 122 121 115 116 121 88 72 69 91 91 108 108 113 122 123 107 102 106 89 76 72 87 82 84 88 84 78 75 73
112 133 144 139 125 126 133 137 139 137 130 129 131 132 132 132 127 124 117 75 53 98 87 92 107 117 125 131 135 121 117 113 105 90 89 87 83 86 88 90 86 81 77
125 132 137 119 128 143 148 147 144 140 142 145 150 154 153 146 137 154 209 91 82 102 88 98 109 121 129 128 137 138 136 127 130 130 113 97 93 85 84 95 99 101 89
134 121 129 111 116 146 151 155 155 163 165 166 178 184 173 183 179 186 206 103 116 106 103 109 113 125 141 140 144 151 154 154 154 163 145 109 106 103 95 100 107 98 98
137 129 128 125 112 163 171 178 177 186 197 201 203 216 209 180 180 180 163 139 125 116 120 124 133 145 159 155 159 165 178 191 193 191 168 135 117 122 132 121 111 115 125
141 136 135 139 142 137 173 189 189 203 220 236 234 225 190 171 166 166 163 157 149 142 142 151 162 175 186 170 176 184 192 203 210 201 197 153 155 183 132 140 129 122 86
162 155 151 159 172 173 174 187 188 195 220 204 199 189 186 182 180 185 196 207 196 183 177 182 197 201 206 188 191 197 204 208 213 206 175 161 150 129 114 106 102 117 267
168 172 173 173 184 187 195 185 190 213 230 210 211 205 209 220 224 239 244 228 219 213 202 199 217 222 222 210 209 203 210 218 232 223 194 144 136 124 110 99 93 85 72
187 190 191 189 189 197 198 210 205 209 215 234 230 227 221 230 238 235 233 239 244 221 202 203 222 231 228 209 212 221 235 237 243 198 183 154 161 112 96 91 92 88 79
204 199 200 201 197 207 211 215 220 227 201 227 234 245 252 253 250 239 229 236 237 225 214 199 211 227 254 222 217 226 232 232 220 205 188 134 112 97 91 87 85 80 77
203 203 207 210 207 215 213 217 226 233 222 229 233 243 253 260 256 257 252 239 236 235 228 227 228 242 258 248 238 227 220 216 200 177 149 123 111 99 93 89 86 80 74
205 197 204 213 214 216 225 225 229 234 230 242 243 239 249 251 251 248 246 237 237 240 251 243 242 244 244 246 242 227 208 200 191 176 153 132 113 103 95 89 84 81 72
222 221 205 216 222 227 230 235 235 235 239 235 240 247 247 259 254 239 235 236 242 236 242 236 230 237 239 237 233 215 199 193 188 179 164 151 126 106 97 90 84 78 73
242 243 246 231 231 239 240 245 245 244 243 245 248 248 247 252 247 240 241 238 230 229 229 224 223 225 226 227 217 205 193 187 183 175 168 161 147 127 108 95 88 79 74
228 229 233 238 236 237 237 240 245 245 244 242 241 239 238 241 239 239 237 239 234 230 228 221 218 219 218 218 212 204 206 200 192 182 178 170 158 142 118 106 96 84 72
239 241 232 228 236 245 242 239 237 238 237 236 234 236 237 238 238 242 241 237 240 238 232 224 220 214 216 220 218 208 207 202 195 190 183 172 153 120 108 97 90 78 75
246 242 243 239 234 225 229 233 232 235 238 240 237 238 238 241 240 241 243 243 239 235 232 225 222 217 212 214 220 217 208 203 204 199 188 180 169 155 135 97 62 57 59
238 236 238 239 238 240 240 239 239 237 237 234 235 235 238 244 245 248 247 249 249 243 236 235 230 222 223 214 211 213 216 214 214 215 212 206 201 193 201 237 308 5 12
232 229 229 234 241 242 238 239 242 240 238 237 238 240 244 247 249 249 251 247 246 243 238 234 230 227 224 225 218 219 220 218 222 232 231 227 230 244 262 282 293 311 321
236 237 238 240 243 244 245 245 244 245 245 243 245 245 244 248 253 253 250 247 245 244 240 237 233 229 228 226 222 225 228 232 235 238 229 225 233 245 262 274 280 287 306
246 244 240 241 243 244 244 244 245 246 243 241 239 239 247 251 250 246 242 239 242 242 239 237 236 233 231 229 228 227 239 240 240 237 233 237 247 240 251 256 270 274 283
261 260 255 252 250 250 249 246 244 242 240 238 241 247 249 249 245 242 240 245 244 239 237 236 235 234 231 231 227 219 215 226 228 236 231 237 241 237 244 255 259 259 265
277 275 269 262 258 254 252 249 247 249 251 254 257 258 256 249 242 244 247 246 243 241 239 237 235 233 232 232 231 232 235 239 231 228 231 234 238 242 244 252 263 265 270
284 282 277 272 264 258 253 253 254 255 258 261 260 258 252 247 248 252 252 248 246 245 242 238 237 236 236 234 234 234 235 240 243 240 242 237 237 243 247 254 265 271 277
287 278 276 272 269 264 260 258 256 257 259 261 261 257 253 249 252 254 251 249 248 248 246 244 244 242 240 240 239 237 239 237 238 237 240 247 248 249 252 258 263 269 272